Location: Dos Palmas
(32.4468°N, 116.8732°W)
Time: 13:51:18
(UTC+00:00)

Tiangong - Visible Passes

Search period start: 30 November 2022 00:00
Search period end: 10 December 2022 00:00
Orbit: 385 x 393 km, 41.5° (Epoch: 30 November)

Date Brightness Start Highest point End Pass type
(mag) Time Alt. Az. Time Alt. Az. Time Alt. Az.
30 Nov -2.0 01:39:26 10° WSW 01:42:36 69° NNW 01:44:24 23° NE visible
01 Dec -0.4 02:18:53 10° WNW 02:21:24 25° NNW 02:21:24 25° NNW visible
02 Dec -1.1 01:20:19 10° W 01:23:17 36° NNW 01:26:01 12° NE visible
03 Dec -0.2 01:59:58 10° WNW 02:02:20 19° N 02:02:52 18° N visible
04 Dec 0.9 02:39:26 10° NW 02:39:40 11° NW 02:39:40 11° NW visible
05 Dec 0.0 01:40:51 10° NW 01:42:57 16° N 01:44:08 14° NNE visible
06 Dec 0.3 02:19:48 10° NW 02:20:53 15° NNW 02:20:53 15° NNW visible
07 Dec 0.0 01:21:20 10° NW 01:23:25 16° N 01:25:20 11° NE visible
08 Dec -0.5 01:59:47 10° NW 02:02:08 22° N 02:02:08 22° N visible
09 Dec 0.3 02:37:56 10° NW 02:39:00 19° NW 02:39:00 19° NW visible
